Wind_Speed
13 14 18 14 17 19 22 24 23 24 25 25 26 26 30 33 34 36 37 37 37 36 36 34 32 35 29 29 32 38 31 26 28 27 23 23 24 24 24 26 24 23 20 20 22 24 24 23 21
15 14 14 8 11 14 20 22 21 20 22 25 23 25 30 34 37 37 36 36 34 31 34 36 33 32 32 37 36 34 33 36 35 37 32 29 23 26 25 27 25 24 20 19 21 28 28 26 22
7 9 9 6 11 14 14 17 17 12 14 14 18 21 23 27 30 33 34 34 34 32 30 29 34 34 37 36 38 36 38 39 39 36 38 34 26 26 27 22 26 23 22 23 23 23 23 24 20
8 6 6 9 11 13 14 9 12 14 16 16 17 17 21 21 23 26 28 30 34 36 35 32 33 41 42 42 35 36 31 42 38 41 42 39 38 28 23 22 25 23 23 23 22 22 26 20 21
5 8 11 14 11 9 8 8 9 8 8 10 13 15 18 19 21 21 23 25 27 31 36 38 36 41 45 46 41 40 38 33 29 42 47 36 39 32 23 26 23 29 26 20 20 17 16 18 19
9 12 9 3 3 4 5 4 3 3 6 9 11 13 15 17 19 20 22 22 23 25 29 34 38 39 43 46 50 49 47 38 35 44 41 37 35 39 25 26 29 30 25 22 23 18 20 18 19
8 9 5 5 6 8 9 8 9 8 9 11 13 15 17 20 23 25 28 30 31 32 32 34 38 41 42 48 50 52 55 55 43 42 43 38 37 39 31 25 29 27 37 25 26 23 27 24 24
18 14 13 13 14 15 13 13 13 14 14 15 16 17 21 24 26 29 31 34 38 40 36 33 36 43 46 49 51 52 56 61 64 50 37 38 46 41 37 34 35 19 16 25 18 26 31 30 27
20 12 15 15 16 17 13 15 15 15 17 19 20 23 25 27 33 36 39 41 44 43 41 43 40 37 43 48 53 55 55 60 61 62 61 54 51 46 45 42 44 43 26 22 22 20 22 27 35
20 16 15 16 16 17 15 16 17 17 19 21 22 23 26 29 35 38 43 48 49 50 51 51 49 48 50 52 51 55 57 59 62 64 66 66 62 45 49 48 45 40 30 20 30 25 23 27 36
16 14 13 13 17 16 15 14 15 16 18 18 21 25 29 31 36 42 46 49 50 50 49 49 51 52 53 47 49 52 59 60 63 66 66 71 66 61 57 55 55 50 40 33 29 27 29 32 33
14 11 9 13 14 16 15 16 19 19 21 22 24 27 30 34 38 42 45 48 50 49 50 48 51 53 46 43 48 54 58 64 66 67 65 72 69 65 58 58 57 55 45 42 27 29 30 25 32
10 8 11 14 15 14 16 19 20 21 22 24 28 29 30 33 37 41 43 46 49 51 50 51 54 51 45 47 53 58 61 64 67 70 70 69 75 72 68 62 60 55 49 43 42 30 29 30 32
6 6 11 13 13 14 18 20 22 23 23 25 27 29 31 33 35 38 44 49 52 56 57 57 59 56 56 56 55 57 66 74 72 74 76 71 79 78 74 65 62 58 52 47 46 38 30 32 35
5 7 8 11 12 14 16 19 23 22 23 25 29 32 33 35 37 41 46 51 56 61 64 66 64 63 59 56 50 44 48 64 82 79 80 79 78 85 83 72 64 63 58 51 50 44 38 35 30
4 4 1 7 9 12 14 17 20 19 22 28 31 32 35 38 41 46 50 54 59 64 66 70 72 67 63 58 57 51 44 50 66 83 82 84 80 90 89 84 69 64 61 54 53 55 41 37 37
8 3 2 5 8 11 14 16 18 21 24 28 31 35 38 42 46 49 54 60 64 66 67 70 69 64 61 59 58 54 43 41 48 66 85 86 86 88 94 91 87 73 65 58 59 57 52 38 37
6 3 5 7 6 9 14 18 20 21 24 28 31 35 40 44 49 54 58 61 64 68 69 71 70 63 58 57 58 57 42 40 41 50 73 91 89 87 98 97 89 77 69 65 61 57 62 41 40
11 8 7 9 8 8 12 17 20 20 24 27 32 37 41 46 51 54 57 61 64 68 69 70 70 62 55 56 56 54 39 37 32 45 56 83 90 93 93 98 90 79 70 64 60 60 62 58 43
11 10 10 11 12 12 12 17 20 22 25 29 33 37 43 48 52 56 60 63 65 67 70 71 71 62 54 53 52 49 33 30 25 37 49 66 90 93 89 95 92 85 75 76 64 64 58 53 49
12 11 10 11 13 13 13 14 20 22 26 29 33 39 43 46 52 57 62 64 65 69 71 72 73 64 55 54 51 47 30 26 23 21 39 49 83 94 93 87 96 90 80 76 70 61 56 55 58
12 12 12 13 13 12 13 13 18 23 25 28 33 38 41 46 51 57 62 65 66 69 71 73 75 68 57 52 49 46 32 23 18 12 21 38 70 92 96 85 98 93 85 78 75 74 61 54 61
15 14 13 11 13 13 14 14 19 22 24 28 32 35 40 46 52 56 61 65 68 70 71 74 76 74 61 55 50 42 35 21 14 9 11 28 54 84 91 84 98 96 89 78 75 71 63 59 52
17 17 15 14 14 13 12 15 18 21 23 27 31 35 41 46 51 55 60 65 69 71 72 75 77 78 67 55 48 39 32 23 13 7 7 23 43 62 80 87 94 93 87 78 74 73 66 56 56
18 19 18 15 13 13 14 15 17 21 24 27 29 36 41 44 49 54 58 64 67 71 72 74 77 79 77 61 48 37 29 21 12 5 6 21 35 50 70 82 92 91 87 78 72 72 64 58 50
19 20 20 17 15 14 14 15 16 19 23 26 31 36 38 42 47 52 57 61 66 69 71 73 76 78 81 72 54 38 28 20 11 2 11 22 32 46 61 73 89 89 85 80 74 64 59 49 44
20 23 21 20 17 15 13 15 16 19 22 27 32 34 37 42 45 50 55 59 63 68 71 72 74 77 80 81 63 45 32 22 13 2 13 22 31 41 49 63 82 86 84 81 73 64 63 52 43
19 21 21 20 19 17 11 15 17 20 22 27 29 32 36 41 44 47 52 56 61 65 70 72 73 75 79 82 74 52 41 30 15 8 13 24 34 39 44 59 74 80 78 78 71 64 63 57 48
20 20 21 21 20 20 16 14 17 18 23 24 27 31 35 39 42 45 49 53 57 62 67 72 73 73 77 80 82 63 49 35 20 9 12 25 33 38 43 59 67 74 71 72 68 68 62 58 55
19 21 21 22 21 20 18 14 17 17 21 24 28 31 35 38 40 43 46 50 54 59 62 69 73 73 74 77 80 79 54 40 23 14 12 21 31 35 43 59 67 71 64 64 64 65 60 55 53
Wind_Direction
249 249 261 248 239 243 247 247 247 248 252 253 255 261 261 264 273 281 284 281 278 277 277 278 278 273 275 241 266 259 242 235 231 232 244 253 251 251 255 252 237 235 237 242 244 242 233 234 231
261 266 263 272 253 263 247 246 251 265 274 262 259 266 266 269 272 278 278 279 279 274 272 273 270 264 254 261 262 246 259 244 234 234 242 251 255 254 254 256 244 237 235 236 240 253 240 216 226
226 238 247 251 252 257 259 251 248 276 288 286 279 277 274 272 272 275 278 280 282 284 278 270 267 270 261 277 246 261 257 243 233 234 243 243 246 257 253 251 241 236 234 234 243 250 253 217 221
224 229 237 245 247 250 243 257 267 289 293 293 290 291 288 291 290 291 293 293 293 291 286 275 266 267 266 268 256 254 255 251 243 245 240 236 241 251 253 234 226 227 232 237 242 258 232 221 215
251 251 242 245 251 266 272 289 301 306 311 312 308 305 300 295 295 298 298 298 297 294 290 284 275 267 267 269 259 269 271 244 252 247 234 229 241 236 235 226 226 234 223 231 235 247 223 236 212
229 234 228 242 256 239 235 251 264 309 360 349 340 339 335 328 319 314 307 302 296 292 292 291 284 273 268 265 263 262 257 255 251 238 215 222 229 230 222 229 225 227 227 230 239 233 218 229 216
162 139 132 135 126 101 86 74 65 49 25 9 350 335 326 325 322 318 313 307 302 295 287 284 284 282 273 263 259 256 254 253 236 229 220 240 224 218 218 229 228 235 222 236 240 213 218 219 217
107 98 101 103 99 91 80 63 37 19 7 355 349 346 340 334 336 336 334 329 321 317 313 301 290 284 278 274 267 256 252 252 254 245 235 245 216 221 224 226 217 191 202 218 219 222 226 226 214
93 96 95 84 82 76 62 39 28 19 3 355 349 346 340 338 342 341 339 339 337 330 327 325 317 301 282 275 269 265 256 251 248 247 247 239 234 231 240 232 230 233 234 210 220 220 217 221 207
106 102 92 79 64 47 43 37 21 9 355 352 349 337 335 337 339 338 337 339 336 334 329 323 317 310 305 295 275 263 257 254 249 243 242 242 240 235 240 237 228 236 239 226 231 220 214 202 208
92 90 90 66 51 43 33 25 14 1 354 351 346 347 341 337 339 340 339 337 333 329 328 324 318 312 305 293 282 264 256 250 247 244 237 238 240 240 240 239 233 236 234 232 227 224 223 218 209
93 91 70 49 42 34 23 18 10 2 358 354 350 347 342 341 337 336 335 334 333 329 324 321 319 319 305 290 279 270 257 252 244 240 237 233 232 230 232 232 230 232 231 227 217 220 224 215 208
92 81 61 48 41 32 24 18 12 1 359 356 357 351 344 340 337 334 334 335 336 332 327 326 327 324 309 296 282 271 262 252 245 239 233 228 226 225 226 228 225 225 224 221 218 202 201 219 221
95 84 62 52 40 34 27 16 9 2 1 1 359 355 350 342 335 333 334 336 335 334 334 334 334 328 321 311 294 278 263 250 242 236 231 226 222 220 223 222 223 219 222 219 215 208 214 206 215
98 86 73 59 35 25 20 12 7 359 6 7 7 359 351 345 344 341 337 337 338 338 339 340 340 336 327 318 312 296 267 253 242 231 228 222 221 216 221 218 216 217 217 218 215 213 207 203 214
49 79 42 28 39 25 18 10 2 358 5 8 5 3 356 353 349 344 341 341 342 344 343 343 345 340 330 322 318 311 293 261 243 234 226 221 216 215 216 215 214 214 216 215 215 211 204 206 213
179 234 317 6 12 18 11 0 358 5 8 8 7 4 358 355 352 347 345 346 348 349 348 348 346 338 331 324 320 317 303 273 253 232 225 221 211 216 213 215 217 215 216 211 214 211 211 203 214
51 347 339 316 336 357 4 353 351 360 5 5 6 2 358 354 351 350 348 348 351 353 351 349 348 340 332 326 324 322 311 290 258 240 219 219 212 211 213 211 214 213 210 207 213 213 214 203 207
17 7 325 326 319 333 352 341 347 355 1 1 2 1 355 356 353 351 351 350 350 352 353 351 352 344 335 331 329 324 315 307 269 241 226 212 210 209 212 210 208 208 197 204 213 213 210 214 209
360 358 345 333 320 316 335 332 344 355 356 0 360 358 356 357 352 354 353 352 352 352 354 356 355 348 338 334 332 330 320 322 292 246 229 215 203 208 209 210 203 202 198 210 211 209 207 211 208
342 338 335 336 329 322 316 328 344 353 352 358 357 359 357 353 354 354 354 354 353 354 357 359 357 353 343 338 337 335 323 319 317 271 236 218 201 201 206 208 201 199 199 204 206 211 212 212 211
338 329 335 342 342 315 314 333 343 356 353 353 357 355 353 353 354 354 354 356 357 357 358 2 1 358 350 341 341 341 332 322 327 305 244 217 203 197 202 203 201 199 198 200 207 215 213 210 217
352 340 326 329 331 323 317 333 349 355 349 355 358 349 352 354 356 353 354 358 359 358 1 4 4 3 356 346 347 344 343 330 319 312 234 215 204 198 196 199 201 200 201 201 204 210 209 209 208
343 334 336 329 318 318 327 334 345 347 351 352 352 351 356 356 355 353 356 358 359 0 2 4 7 6 5 354 350 347 349 343 319 298 224 207 202 201 196 196 200 200 200 200 202 205 206 205 207
338 345 338 322 308 322 329 335 335 345 352 352 347 353 357 356 355 354 356 357 360 1 2 5 8 9 10 2 354 353 353 357 346 282 201 190 190 192 199 194 197 199 198 194 200 200 202 207 210
334 338 339 332 318 317 320 327 330 342 350 351 356 354 352 355 356 355 358 359 360 1 3 6 8 11 12 11 2 1 359 2 9 270 180 177 180 188 198 194 194 198 197 196 199 195 200 202 206
335 337 337 328 316 303 307 314 323 334 343 350 357 353 351 357 355 356 358 360 0 2 3 6 8 11 14 17 10 11 10 9 22 80 173 171 173 185 195 195 192 196 194 196 200 193 199 203 207
336 331 330 331 325 316 307 305 320 330 338 346 347 348 354 357 357 357 358 360 1 1 2 5 9 12 16 19 19 17 17 15 20 85 164 166 170 182 189 194 193 194 194 194 198 193 201 204 206
331 330 331 332 330 322 318 305 312 326 334 336 336 345 351 355 355 357 358 360 2 2 3 4 9 13 16 20 23 23 22 20 23 69 152 165 171 180 185 193 193 193 194 192 195 195 201 209 212
329 329 332 331 333 321 317 311 307 316 322 329 337 343 348 351 352 357 357 359 3 3 3 5 8 13 17 20 24 28 28 26 33 67 120 166 168 177 180 191 193 194 191 191 195 198 202 209 215
Height
5838 5838 5841 5841 5845 5843 5843 5844 5845 5846 5847 5846 5846 5845 5844 5844 5843 5844 5840 5841 5842 5842 5842 5841 5840 5840 5840 5838 5840 5839 5841 5843 5843 5845 5845 5845 5844 5843 5844 5844 5844 5844 5846 5848 5848 5848 5848 5850 5851
5837 5838 5840 5840 5841 5841 5842 5842 5843 5843 5842 5842 5842 5842 5842 5840 5839 5838 5836 5835 5834 5836 5837 5836 5835 5834 5833 5836 5836 5836 5835 5836 5838 5839 5839 5840 5840 5840 5839 5841 5841 5841 5843 5845 5845 5844 5844 5846 5848
5834 5835 5837 5837 5839 5840 5841 5840 5840 5839 5838 5838 5838 5839 5839 5839 5837 5835 5833 5831 5829 5828 5829 5830 5828 5826 5826 5827 5828 5829 5829 5829 5831 5833 5834 5834 5834 5836 5836 5837 5839 5838 5839 5840 5841 5842 5842 5842 5846
5831 5833 5835 5835 5837 5838 5837 5837 5838 5837 5837 5836 5835 5835 5835 5834 5833 5832 5830 5827 5825 5822 5821 5822 5822 5820 5819 5819 5819 5820 5819 5821 5822 5824 5827 5827 5828 5831 5832 5832 5835 5833 5836 5837 5838 5838 5839 5839 5843
5831 5831 5833 5834 5835 5835 5836 5837 5837 5836 5834 5831 5830 5830 5830 5830 5829 5828 5826 5825 5822 5817 5813 5812 5813 5813 5810 5808 5810 5812 5813 5813 5813 5815 5819 5820 5821 5824 5826 5827 5828 5830 5830 5832 5834 5835 5837 5839 5839
5830 5831 5832 5833 5834 5834 5834 5834 5834 5833 5832 5831 5829 5828 5828 5826 5825 5823 5822 5821 5818 5815 5810 5804 5800 5802 5801 5799 5799 5799 5803 5805 5806 5807 5808 5811 5814 5817 5818 5821 5823 5825 5827 5828 5830 5832 5835 5836 5837
5829 5830 5831 5831 5832 5832 5831 5832 5833 5833 5832 5831 5828 5827 5825 5823 5822 5820 5818 5815 5813 5810 5807 5802 5795 5791 5789 5788 5788 5791 5791 5794 5797 5799 5801 5805 5807 5810 5810 5814 5817 5818 5820 5824 5825 5828 5831 5832 5834
5828 5830 5831 5831 5831 5832 5832 5832 5831 5830 5828 5827 5825 5823 5821 5819 5816 5813 5810 5807 5803 5800 5797 5794 5789 5782 5778 5775 5775 5778 5780 5780 5784 5787 5791 5794 5797 5801 5803 5805 5811 5811 5815 5817 5820 5822 5825 5828 5830
5828 5831 5831 5831 5831 5832 5832 5831 5829 5828 5826 5824 5821 5818 5816 5813 5809 5806 5803 5799 5795 5792 5788 5783 5779 5774 5767 5761 5760 5762 5765 5766 5769 5774 5778 5782 5786 5791 5794 5797 5800 5802 5808 5812 5816 5818 5820 5821 5825
5832 5832 5832 5832 5832 5832 5831 5830 5828 5827 5824 5822 5819 5816 5814 5810 5806 5801 5797 5792 5788 5784 5778 5773 5768 5762 5756 5747 5744 5743 5745 5748 5750 5757 5762 5769 5773 5778 5784 5788 5791 5797 5804 5807 5811 5814 5816 5817 5821
5832 5834 5834 5834 5833 5832 5831 5830 5828 5826 5824 5822 5818 5815 5810 5806 5802 5796 5792 5788 5782 5776 5769 5762 5755 5748 5741 5734 5726 5724 5723 5727 5730 5735 5744 5751 5759 5766 5771 5777 5783 5790 5798 5802 5803 5807 5810 5813 5815
5834 5835 5834 5834 5832 5831 5829 5828 5827 5824 5821 5819 5815 5812 5807 5803 5798 5793 5788 5782 5775 5768 5760 5752 5742 5733 5724 5717 5710 5703 5701 5703 5706 5713 5723 5731 5740 5749 5758 5764 5772 5780 5789 5794 5794 5801 5804 5806 5811
5835 5835 5835 5833 5832 5831 5829 5828 5825 5823 5820 5817 5813 5809 5805 5801 5796 5790 5784 5777 5768 5759 5751 5740 5729 5717 5707 5698 5690 5682 5677 5676 5684 5690 5700 5711 5721 5731 5743 5751 5761 5770 5777 5785 5791 5793 5795 5801 5806
5836 5836 5835 5834 5832 5831 5829 5827 5825 5823 5820 5815 5812 5806 5802 5797 5792 5785 5776 5767 5757 5746 5736 5724 5712 5698 5686 5670 5658 5649 5646 5646 5653 5664 5674 5689 5699 5712 5725 5738 5747 5757 5766 5774 5782 5788 5791 5795 5800
5837 5836 5836 5835 5833 5831 5830 5827 5824 5822 5817 5813 5808 5803 5798 5792 5784 5776 5767 5758 5746 5732 5718 5705 5692 5676 5659 5641 5628 5620 5614 5610 5617 5634 5647 5663 5677 5691 5706 5721 5733 5746 5754 5763 5772 5780 5785 5789 5794
5836 5836 5836 5835 5834 5832 5830 5827 5825 5822 5816 5810 5804 5799 5793 5786 5777 5767 5757 5747 5736 5721 5706 5688 5667 5647 5633 5620 5608 5597 5588 5582 5586 5605 5620 5637 5658 5670 5685 5702 5718 5731 5744 5753 5761 5772 5779 5782 5788
5838 5837 5835 5834 5833 5831 5829 5826 5824 5819 5813 5806 5801 5795 5788 5778 5768 5761 5749 5736 5723 5708 5690 5673 5655 5637 5619 5605 5592 5578 5567 5561 5560 5570 5593 5608 5632 5646 5663 5682 5701 5718 5732 5742 5751 5761 5770 5776 5782
5836 5835 5833 5832 5832 5829 5827 5823 5821 5817 5810 5804 5798 5791 5782 5774 5765 5754 5742 5730 5715 5700 5683 5664 5645 5626 5608 5593 5577 5561 5549 5542 5539 5547 5555 5583 5607 5624 5640 5662 5682 5703 5719 5729 5739 5751 5761 5769 5776
5834 5833 5831 5830 5829 5828 5825 5822 5818 5814 5807 5802 5795 5786 5780 5771 5760 5751 5739 5726 5712 5696 5681 5664 5643 5621 5600 5582 5566 5552 5538 5529 5524 5526 5536 5552 5584 5604 5621 5642 5665 5687 5704 5716 5729 5741 5751 5762 5769
5833 5831 5829 5828 5826 5824 5823 5819 5815 5810 5804 5798 5790 5785 5776 5765 5758 5745 5735 5722 5708 5694 5677 5656 5636 5614 5594 5578 5561 5545 5530 5520 5514 5513 5522 5534 5563 5587 5607 5626 5649 5672 5689 5704 5718 5732 5742 5752 5760
5831 5830 5828 5827 5823 5821 5820 5817 5813 5807 5801 5794 5789 5780 5773 5766 5755 5744 5732 5718 5704 5687 5669 5651 5631 5608 5587 5568 5553 5537 5523 5516 5508 5505 5510 5523 5542 5567 5590 5612 5633 5657 5676 5693 5708 5721 5733 5743 5753
5831 5828 5826 5824 5821 5819 5817 5815 5811 5804 5799 5793 5786 5779 5774 5764 5753 5741 5728 5714 5699 5684 5667 5646 5625 5603 5582 5566 5549 5532 5519 5511 5505 5501 5504 5513 5529 5545 5574 5597 5620 5642 5663 5683 5697 5712 5725 5735 5743
5829 5827 5824 5822 5820 5817 5814 5812 5807 5802 5797 5791 5785 5780 5773 5762 5750 5739 5726 5711 5696 5680 5661 5642 5622 5599 5575 5557 5543 5530 5517 5508 5503 5500 5502 5508 5520 5539 5563 5586 5608 5630 5651 5671 5688 5704 5717 5728 5737
5827 5825 5821 5819 5818 5816 5812 5808 5805 5801 5796 5790 5785 5779 5769 5759 5749 5738 5724 5709 5694 5676 5660 5641 5621 5600 5577 5557 5542 5528 5517 5507 5503 5501 5501 5506 5518 5537 5552 5574 5598 5621 5642 5662 5679 5696 5709 5720 5729
5825 5822 5820 5818 5815 5812 5809 5806 5803 5799 5794 5789 5784 5776 5767 5758 5749 5736 5723 5708 5692 5676 5660 5642 5622 5601 5579 5557 5540 5526 5517 5508 5503 5502 5502 5507 5517 5533 5548 5567 5590 5613 5634 5654 5672 5689 5702 5713 5724
5823 5820 5817 5813 5811 5809 5806 5804 5801 5797 5793 5788 5781 5773 5766 5758 5748 5736 5723 5709 5694 5678 5661 5644 5625 5606 5585 5562 5540 5526 5516 5508 5504 5502 5503 5506 5518 5532 5546 5564 5586 5609 5629 5648 5665 5682 5697 5708 5718
5820 5817 5815 5811 5808 5806 5804 5802 5799 5795 5792 5785 5779 5772 5767 5757 5748 5737 5724 5712 5697 5682 5666 5649 5632 5612 5591 5568 5545 5529 5517 5510 5505 5504 5506 5510 5521 5533 5548 5565 5584 5606 5624 5642 5660 5675 5690 5704 5713
5819 5815 5812 5808 5804 5801 5801 5798 5796 5793 5789 5783 5779 5773 5766 5756 5747 5737 5726 5714 5701 5686 5671 5654 5637 5618 5598 5576 5554 5535 5523 5514 5508 5505 5509 5513 5523 5535 5549 5566 5584 5604 5621 5638 5655 5671 5685 5696 5705
5817 5813 5809 5805 5802 5798 5796 5796 5793 5790 5786 5783 5777 5772 5764 5755 5747 5738 5727 5717 5704 5690 5676 5660 5643 5625 5607 5588 5567 5546 5531 5521 5514 5510 5513 5518 5527 5538 5552 5568 5586 5604 5620 5636 5652 5667 5680 5691 5701
5813 5809 5806 5802 5799 5795 5793 5794 5791 5789 5785 5781 5776 5769 5761 5754 5747 5739 5729 5719 5708 5695 5681 5666 5650 5633 5616 5599 5581 5561 5543 5530 5522 5517 5518 5526 5533 5544 5556 5572 5590 5605 5622 5636 5651 5665 5677 5688 5696